User: anonymous   Login
Location: Banios
(43.0451°N, 0.2335°E)
Time: 16:51:38
(UTC+00:00)
Language:

IMS-1 - Orbit

View from above orbital plane
View from above orbital plane
View from above satellite
View from above satellite

Ground track
Ground track

The orbit data is extracted from the following two-line orbital elements,

1 32786U 08021D   21267.64851210  .00000443  00000-0  57112-4 0  9993
2 32786  97.7023 237.3321 0013168 105.3860 254.8819 14.85618556725672
Epoch (UTC): 24 September 2021 15:33:51
Eccentricity: 0.0013168
inclination: 97.7023°
perigee height: 602 km
apogee height: 621 km
right ascension of ascending node: 237.3321°
argument of perigee: 105.3860°
revolutions per day: 14.85618556
mean anomaly at epoch: 254.8819°
orbit number at epoch: 72567

The dashed part of the orbit path shows where the satellite is in the earth's shadow,  

DLR